Simultaneous Nadir Overpasses (SNOs) Predictions

Prediction of SNOs between METOP-B and NOAA-19 Satellite Orbit:

Table of predicted SNOs for the next 14.0 days since TLE Epoch: 1/21/2023
Index Date (METOP-B) Time (METOP-B) Lat,Lon (METOP-B) SZA (METOP-B ) Date (NOAA-19) Time (NOAA-19) Lat,Lon (NOAA-19) SZA (NOAA-19 ) Distance(km) Time Diff (sec)
1 01/26/2023 19:10:41 -80.93, 107.33 79.18 01/26/2023 19:09:44 -80.92, 107.44 79.19 1.99 57
2 01/26/2023 20:01:22 80.92, -85.51 100.80 01/26/2023 20:00:43 80.92, -85.43 100.79 1.52 39
3 01/26/2023 20:52:03 -80.92, 81.82 79.22 01/26/2023 20:51:44 -80.92, 81.74 79.23 1.54 19
4 01/26/2023 21:42:43 80.93,-110.66 100.80 01/26/2023 21:42:42 80.92,-110.75 100.79 1.65 1
5 01/26/2023 22:33:24 -80.93, 56.67 79.21 01/26/2023 22:33:42 -80.92, 56.80 79.20 2.19 18
6 01/26/2023 23:24:05 80.92,-136.17 100.76 01/26/2023 23:24:41 80.92,-136.07 100.79 1.84 36
7 01/27/2023 00:14:46 -80.92, 31.17 79.25 01/27/2023 00:15:42 -80.92, 31.10 79.24 1.31 56



Historial Predications of SNOs between METOP-B and NOAA-19
